Showing default

OPS 6638 (VELA 7), 2765

Orbit data source: Space-Track

OPS 6638 (VELA 7), 2765 is a payload satellite owned by USAF SSD (US) in HEO that was launched on Fri, 28 Apr 1967 UTC via a TITAN IIIC launch vehicle from the Air Force Eastern Test Range (AFETR). Payloads include a variety of satellites, spacecraft, and rockets equipped with specific instruments for various scientific and technological missions. These include communications satellites like Starlink; space stations such as the ISS; scientific satellites like the Hubble; Earth observation satellites from companies like Planet Labs, Umbra, and HawkEye 360; GPS; miniature CubeSats for education and research; and military/defense satellites.

Loading next visibility...
OPS 6638 (VELA 7) details
Identifier
2765, 1967-040A
Orbit
HEO
Last TLE update5 months ago
Origin
Flag of USUSAF SSD (US)
ManufacturerTRW
MissionDefense Early Warn
Bus & MotorVELA, BE-3
Mass331 kg wet, 221 kg dry
Launch date (UTC)
1967-04-28 (58 years ago)
Launch vehicle
TITAN IIIC
Launch site
Air Force Eastern Test Range (AFETR)
Object type
Payload
Rocket body
Debris
Shape & HBRPoly, 1.42 m
Radar Cross Section2.036 m²

Expand to show TLE details & history

TLE from 5 months ago
0 OPS 6638 (VELA 7)
1 02765U 67040A   24191.21787369 -.00001435  00000-0  00000-0 0  9991
2 02765  37.2403  25.7751 4714903 260.7106 358.0572  0.21499723 11984
Epoch: 2024-07-09T05:13Z
Definitive object data (Epoch: 2024-07-09T05:13:44.286Z)
Latitude-35.34894°
Longitude-91.02605°
Altitude54,911.134 km
Speed3.102 km/s
True Right ascension18h 20m 11s
True Declination-35° 19' 48"
Sunlit
Object was in daylight at TLE epoch
Visualization TLE readout
Latitude37.84954°
Longitude106.6417°
Altitude167,741.688 km
Speed1.092 km/s
Apparent Right ascension07h 34m 26s
Apparent Declination37° 40' 19"
Sunlit
Object is in daylight
Visualization observer readout
Local Sidereal Time05:50:45
Azimuth88.025° E
Elevation69.745°
Doppler factor1
Orbital elements
Apogee altitude166,818.123 km
Perigee altitude55,828.12 km
Semi-major axis117,701.258 km
Eccentricity0.4714903
Inclination37.2403°
RAAN25.7751°
Arg. of periapsis260.7106°
True anomaly353.87372°
Mean anomaly358.0572°
Eccentric anomaly356.32625°
Mean motion0.05375 °/min
BSTARUnknown
Orbital period6697.78 mins
Loading maneuver chart data...
Loading historical data...
Loading historical data...
Loading historical data...
Loading historical data...
Loading historical data...
Loading historical data...
Loading historical data...

OPS 6638 (VELA 7) Visibility forecast

Observer location: undefined°, undefined

Span
Click to sort rows by Start time (UTC) header in descending order
Start Az.
Max El. time (UTC)
Max El. Az.
Max El.
End time (UTC)
End Az.
588 mins2024-12-12 07:25:15.769Z88.035° E2024-12-12 09:19:15.769Z189.369° SSW44.979°2024-12-12 17:13:15.769Z307.975° NW
156 mins2024-12-13 04:49:15.769Z58.978° ENE2024-12-13 07:25:15.769Z78.567° E29.158°2024-12-13 07:25:15.769Z78.567° E
|